Погода в Бахердене

Погода в Бахердене : погода сейчас, прогноз погоды и архив. Всё, что Вы хотите узнать о погоде в Бахердене!

Поиск расширенной информации на нашем сайте:

Другие новости

Новости СМИ2

Главная страница сайта

Новости сайта

03.07.2017

Напоминаем, что на нашем специализированном сайте Метеоцентр.Азия вы можете получить высокодетализированные автоматические прогнозы погоды по пунктам России, СНГ и мира в авиационном формате (включающие направление и скорость ветра, видимость, явления погоды, количество и форму облачности, нижнюю и верхнюю границу облачности).

Рекомендуем: Прямо на сайте экспресс заказ пазла, подробности на сайте.

Погода в Бахердене - сегодня

Время (UTC), дата Ветер
(°,м/с) 
Видим.   Явления Облачность Т
(°С)
Тd
(°С)
f(%) Тe
(°С)
Pmin
(гПа)
dP
(гПа)
Po
(мм)
O2
(г/м3)
Тmin Tmax R s Состояние
почвы
18 16.09.17 тихо ()   2000 м    ясно 
+22.1 +4.1 31 +22  1018.3  0.1  750  279    +32.3       
21 16.09.17 210 (ЮЗ) 2000 м    ясно 
+20.7 +2.9 31 +21  1017.6  -0.9  749  280           
00 17.09.17 тихо ()   2000 м    ясно 
+19.6 +2.7 33 +20  1019.2  1.5  750  282           
03 17.09.17 240 (ЮЗ) 20000 м    ясно 
+21.5 -1.4 22 +22  1019.8  0.7  751  281           
06 17.09.17 тихо ()   20000 м    ясно 
+28.6 +3 19 +29  1019.6  0.3  751  273  +19.2         
09 17.09.17 010 (С) 20000 м    ясно 
+30.6 +0.6 15 +31  1018.4  -1  750  272           
12 17.09.17 030 (СВ) 20000 м    ясно 
+31.6 +0.4 14 +32  1017.4  -1  750  271           
15 17.09.17 340 (С) 20000 м    ясно 
+26.6 +5.1 25 +27  1017.6  -0.1  749  274    +31.8       
18 17.09.17 240 (ЮЗ) 2000 м    ясно 
+25.3 -0.5 18 +25  1018  0.3  750  276    +31.8       
21 17.09.17 240 (ЮЗ) 2000 м    ясно 
+24.7 -1.7 17 +25  1018.5  0.5  750  277           
00 18.09.17 300 (СЗ) 2000 м    ясно 
+22.7 +1.1 24 +23  1017.6  -1  749  279           
03 18.09.17 280 (З) 20000 м    ясно 
+23.5 +1.7 24 +24  1018.2  0.6  750  278           
06 18.09.17 тихо ()   20000 м    ясно 
+28.2 +2.6 19 +28  1020.4  751  274  +22.3         
09 18.09.17 тихо ()   20000 м    ясно 
+32.2 +3.6 16 +32  1018  -0.5  750  270           
12 18.09.17 тихо ()   20000 м    ясно 
+32.8 +4.8 17 +33  1015.9  -0.2  749  269           
15 18.09.17 тихо ()   20000 м    ясно 
+28.6 +8.1 28 +29  1016.3  0.1  749  272    +33.1       
18 18.09.17 230 (ЮЗ) 2000 м    ясно 
+24.5 +3.2 25 +25  1018.1  -1.6  750  277    +33.1       
21 18.09.17 260 (З) 2000 м    ясно 
+24.3 +1.1 22 +24  1017.1  -1  749  277           
00 19.09.17 260 (З) 2000 м    ясно 
+19.9 +1.5 29 +21  1017.4  -0.1  749  281           
03 19.09.17 210 (ЮЗ) 20000 м    ясно 
+22.1 +0.2 23 +22  1018.6  1.3  750  279           
06 19.09.17 тихо ()   20000 м    ясно 
+29.4 +2.9 18 +29  1019.6  1.5  751  273  +19.5         
09 19.09.17 080 (В) 20000 м    ясно 
+32.9 +0.9 13 +33  1017.4  -1.9  750  269           
12 19.09.17 090 (В) 20000 м    ясно 
+33.5 +0.6 12 +34  1016.2  -1.2  749  269           
15 19.09.17 тихо ()   20000 м    ясно 
+28.6 +9.2 30 +29  1016.5  749  272    +33.7       
18 19.09.17 тихо ()   2000 м    ясно 
+25.2 +1.7 22 +25  1016.6  -0.1  749  276    +33.7       
Время (UTC), дата Ветер
(°,м/с) 
Видим.   Явления Облачность Т
(°С)
Тd
(°С)
f(%) Тe
(°С)
Pmin
(гПа)
dP
(гПа)
Po
(мм)
O2
(г/м3)
Тmin Tmax R s Состояние
почвы

Для получения пояснительной информации подведите курсор к названию столбца.

ПОГОДА в Бахердене - архив

Всё, что Вы хотите узнать о погоде в Бахердене - удобно и подробно!

Выберите нужную дату (начиная с 1 января 2015* года) и нажмите кнопку "Найти".
Будут отображены архивные сводки погоды по пункту Бахерден, начиная с указанной даты.


Отображать данные в формате CSV (для использования в таблицах Excel)


Внимание! Наш архив погоды предназначен исключительно для личного некоммерческого использования в познавательных целях. Если Вам необходимы официальные справки о состоянии погоды (для производственных, юридических, коммерческих и т.п. целей), обращайтесь в органы Росгидромета.

*Примечание: данная дата относится к архиву по метеостанциям СССР (Россия, СНГ, Балтия).
Архив по метеостанциям Зарубежной Европы и Азии (кроме Китая) хранится 10 дней, по другим регионам земного шара (Китай, Африка, Америка, Австралия, Океания) - 1 день.

Бахерден - район местоположения метеостанции


Название, широта, долгота, высота метеостанции:
Бахерден 38.4°ш. 57.4°д. 159 м над ур. моря [Туркменистан]

Дополнительная информация

В oтличие oт бoльшинства пoгoдных сайтoв мы публикуем пoдрoбную метеoинфoрмацию в детальнoм прoфессиoнальнoм фoрмате.

Характеристики температуры и влажнoсти вoздуха измеряются на высoте 2 м в тени вдали oт зданий и деревьев.
Скoрoсть ветра измеряется на высoте 10 м (на урoвне рoста челoвека скoрoсть ветра ниже в 1.5-2 раза). Если метеoстанция нахoдится в гoрoде или в лесу, тo скoрoсть ветра занижена на 2-4 м/с пo сравнению с oткрытым местoм. Скoрoсть ветра над акватoриями крупных рек и oзёр, а также на вершинах хoлмoв на 2-5 м/с выше, чем в oбычных услoвиях.
Атмoсфернoе давление в разных тoчках местнoсти мoжет значительнo oтличаться oт давления на метеoстанции, в зависимoсти oт услoвий рельефа (при пoдъёме на 10 м давление пoнижается примернo на 1 мм рт.ст.).